Szolnok, Hungary

7:15 PM CET on February 19, 2018 (GMT +0100)
Szolnok

Weather History for LHSN - November, 2013

Change the Weather History Date:

Monday, November 11, 2013

  Actual Average (LHBP) Record (LHBP)
Temperature  
Mean Temperature 48 °F -  
Max Temperature 51 °F 48 °F 68 °F (2015)
Min Temperature 46 °F 34 °F 26 °F (2002)
Degree Days  
Heating Degree Days 16    
Moisture  
Dew Point 43 °F    
Average Humidity 80    
Maximum Humidity 100    
Minimum Humidity 62    
Precipitation  
Precipitation 0.00 in - - ()
Sea Level Pressure  
Sea Level Pressure 29.97 in    
Wind  
Wind Speed 15 mph ()    
Max Wind Speed 27 mph    
Max Gust Speed 38 mph    
Visibility 4.3 miles    
Events Fog , Rain    
Averages and records for this station are not official NWS values.
T = Trace of Precipitation, MM = Missing Value Source: Averaged Metar Reports

Daily Weather History Graph

Daily Weather History Graph

Search for Another Location

Airport or City:

Trip Planner

Search our weather history database for the weather conditions in past years. The results will help you decide how hot, cold, wet, or windy it might be!

Date:

Astronomy

Nov. 11, 2013 Rise Set
Actual Time 6:36 AM CET 4:08 PM CET
Civil Twilight 6:03 AM CET 4:41 PM CET
Nautical Twilight 5:27 AM CET 5:18 PM CET
Astronomical Twilight 4:51 AM CET 5:54 PM CET
Moon 1:01 PM CET (11/11) No Moon Set
Length of Visible Light 10h 37m
Length of Day
9h 31m
Waxing Gibbous, 63% of the Moon is Illuminated
Nov 11
Waxing Gibbous
Nov 17
Full
Nov 25
Last Quarter
Dec 3
New
Dec 9
First Quarter

Hourly Weather History & Observations

Time (CET) Temp. Windchill Dew Point Humidity Pressure Visibility Wind Dir Wind Speed Gust Speed Precip Events Conditions
12:00 AM - - - N/A% - 0.5 mi NE 11.2 mph - N/A Fog Fog
12:15 AM 46.4 °F 41.2 °F 46.4 °F 100% 29.77 in 0.5 mi ENE 11.2 mph - N/A Fog Fog
12:45 AM 46.4 °F 41.2 °F 46.4 °F 100% 29.77 in 0.9 mi ENE 11.2 mph - N/A   Mostly Cloudy
1:15 AM 48.2 °F - 46.4 °F 93% 29.77 in 1.2 mi ENE 8.9 mph - N/A   Mostly Cloudy
1:45 AM 48.2 °F - 48.2 °F 100% 29.77 in 1.2 mi ENE 11.2 mph - N/A   Mostly Cloudy
2:15 AM 48.2 °F - 46.4 °F 93% 29.77 in 3.1 mi NE 11.2 mph - N/A   Overcast
2:45 AM 48.2 °F - 46.4 °F 93% 29.77 in 5.0 mi NE 15.7 mph - N/A   Unknown
3:15 AM 48.2 °F - 46.4 °F 93% 29.77 in 5.0 mi NE 15.7 mph - N/A   Unknown
3:45 AM 48.2 °F - 46.4 °F 93% 29.77 in - NE 13.4 mph - N/A   Clear
4:15 AM 48.2 °F - 46.4 °F 93% 29.80 in - NNE 15.7 mph - N/A   Clear
4:45 AM 48.2 °F - 46.4 °F 93% 29.80 in - NE 15.7 mph - N/A   Clear
5:00 AM - - - N/A% - 6.2 mi NE 11.2 mph - N/A   Overcast
5:15 AM 48.2 °F - 46.4 °F 93% 29.80 in - NE 17.9 mph - N/A   Clear
5:20 AM 48.2 °F - 46.4 °F 93% 29.80 in - NE 15.7 mph 26.8 mph N/A   Clear
5:45 AM - - - N/A% - 6.2 mi NE 11.2 mph - N/A   Overcast
6:01 AM 48.2 °F - 44.6 °F 87% 29.83 in 6.2 mi NE 17.9 mph - N/A Rain Light Rain Showers
6:15 AM 48.2 °F - 44.6 °F 87% 29.83 in 6.2 mi NNE 17.9 mph - N/A Rain Light Rain Showers
6:45 AM 48.2 °F - 44.6 °F 87% 29.86 in 6.2 mi North 11.2 mph - N/A Rain Light Rain Showers
7:15 AM 48.2 °F - 44.6 °F 87% 29.86 in - NNE 13.4 mph - N/A   Clear
7:45 AM 50.0 °F - 44.6 °F 82% 29.89 in - NNE 13.4 mph - N/A   Clear
8:15 AM 50.0 °F - 42.8 °F 76% 29.89 in - NNE 20.1 mph - N/A   Clear
8:36 AM 50.0 °F - 44.6 °F 82% 29.89 in 6.2 mi NNE 17.9 mph - N/A Rain Light Rain Showers
8:45 AM - - - N/A% - 6.2 mi NNE 17.9 mph 29.1 mph N/A   Mostly Cloudy
9:15 AM 50.0 °F - 44.6 °F 82% 29.92 in 6.2 mi NE 15.7 mph - N/A Rain Light Rain Showers
9:45 AM 50.0 °F - 46.4 °F 87% 29.92 in 6.2 mi NNE 17.9 mph - N/A Rain Light Rain Showers
10:01 AM 51.8 °F - 46.4 °F 82% 29.92 in 6.2 mi NNE 20.1 mph - N/A   Mostly Cloudy
10:15 AM 50.0 °F - 46.4 °F 87% 29.95 in 6.2 mi NNE 20.1 mph 31.3 mph N/A   Mostly Cloudy
10:45 AM 51.8 °F - 44.6 °F 76% 29.95 in - NE 20.1 mph - N/A   Clear
11:15 AM 51.8 °F - 44.6 °F 76% 29.98 in - NE 20.1 mph - N/A   Clear
11:29 AM 51.8 °F - 46.4 °F 82% 29.98 in 6.2 mi NE 20.1 mph - N/A Rain Light Rain Showers
11:45 AM - - - N/A% - 3.1 mi NNE 17.9 mph 29.1 mph N/A Rain Rain Showers
12:15 PM 51.8 °F - 46.4 °F 82% 29.98 in 6.2 mi NNE 15.7 mph - N/A Rain Light Rain Showers
12:45 PM 51.8 °F - 44.6 °F 76% 30.01 in - NNE 17.9 mph - N/A   Clear
1:15 PM 51.8 °F - 46.4 °F 82% 30.01 in - NNE 20.1 mph - N/A   Clear
1:45 PM 51.8 °F - 44.6 °F 76% 30.04 in 6.2 mi NNE 17.9 mph 29.1 mph N/A   Mostly Cloudy
2:15 PM 51.8 °F - 42.8 °F 71% 30.04 in - NNE 22.4 mph 33.6 mph N/A   Clear
2:27 PM 51.8 °F - 42.8 °F 71% 30.04 in - NNE 24.6 mph 38.0 mph N/A   Clear
2:45 PM 51.8 °F - 42.8 °F 71% 30.06 in - NNE 24.6 mph - N/A   Clear
3:15 PM 50.0 °F - 41.0 °F 71% 30.06 in - NNE 17.9 mph - N/A   Clear
3:45 PM 50.0 °F - 41.0 °F 71% 30.06 in - NNE 22.4 mph - N/A   Clear
4:15 PM 50.0 °F - 39.2 °F 66% 30.06 in - NNE 26.8 mph - N/A   Clear
4:45 PM 50.0 °F - 39.2 °F 66% 30.09 in - NNE 20.1 mph - N/A   Clear
5:15 PM 50.0 °F - 37.4 °F 62% 30.12 in - NNE 22.4 mph 33.6 mph N/A   Clear
5:45 PM - - - N/A% - 0.7 mi NNE 17.9 mph 29.1 mph N/A   Clear
6:15 PM 48.2 °F - 37.4 °F 66% 30.15 in - NNE 20.1 mph - N/A   Clear
6:45 PM 48.2 °F - 37.4 °F 66% 30.15 in - NNE 20.1 mph - N/A   Clear
7:15 PM 48.2 °F - 37.4 °F 66% 30.15 in - NNE 20.1 mph - N/A   Clear
7:45 PM 48.2 °F - 37.4 °F 66% 30.18 in - NNE 20.1 mph - N/A   Clear
8:15 PM 48.2 °F - 37.4 °F 66% 30.18 in - NNE 22.4 mph 33.6 mph N/A   Clear
8:45 PM - - - N/A% - - NNE 13.4 mph - N/A   Clear
9:15 PM 48.2 °F - 39.2 °F 71% 30.21 in - NNE 20.1 mph 31.3 mph N/A   Clear
9:45 PM 48.2 °F - 39.2 °F 71% 30.21 in - NNE 20.1 mph - N/A   Clear
10:15 PM 48.2 °F - 37.4 °F 66% 30.21 in - NNE 20.1 mph - N/A   Clear
10:45 PM 48.2 °F - 39.2 °F 71% 30.21 in - NNE 17.9 mph - N/A   Clear
11:15 PM 48.2 °F - 37.4 °F 66% 30.24 in - NNE 20.1 mph - N/A   Clear
11:45 PM - - - N/A% - 0.7 mi North - - N/A   Unknown